Location: Allaines
(49.9632°N, 2.9458°E)
Time: 16:40:17
(UTC+00:00)

SL-4 R/B - Pass Details

Date: 09 April 2020
Orbit: 428 x 666 km, 51.6° (Epoch: 28 May)

Event Time Altitude Azimuth Distance (km) Brightness Sun altitude
Rises 19:01:30 0° 242° (WSW) 2,400 6.0 -5.2°
Reaches altitude 10° 19:03:37 10° 240° (WSW) 1,525 4.9 -5.5°
Maximum altitude 19:06:59 67° 158° (SSE) 470 1.5 -6.0°
Drops below altitude 10° 19:10:24 10° 75° (ENE) 1,541 3.8 -6.5°
Enters shadow 19:11:39 - 73° (ENE) 2,052 4.5 -6.7°
